User: anonymous   Login
Location: Innerarity Island Observatory
(30.3139°N, 87.4867°W)
Time: 02:01:35
(UTC-06:00)
Language:

JAS-2 - Orbit

View from above orbital plane
View from above orbital plane
View from above satellite
View from above satellite

Ground track
Ground track

The orbit data is extracted from the following two-line orbital elements,

1 24278U 96046B   17018.94309284 -.00000020  00000-0  16332-4 0  9996
2 24278 098.5827 281.8988 0350542 004.1364 356.2544 13.53074093008445
Epoch (UTC): 18 January 2017 22:38:03
Eccentricity: 0.0350542
inclination: 98.5827°
perigee height: 800 km
apogee height: 1322 km
right ascension of ascending node: 281.8988°
argument of perigee: 4.1364°
revolutions per day: 13.53074093
mean anomaly at epoch: 356.2544°
orbit number at epoch: 844

The dashed part of the orbit path shows where the satellite is in the earth's shadow,  

DLR